Spokane Fairchild, WA
on Saturday, November 10, 2012

Saturday
Previous Day Next Day
Daily Summary
 ActualAverage (KGEG)Record (KGEG)
Temperature
Mean Temperature °F 38°F  
Max Temperature 28°F 44°F 61°F (1953)
Min Temperature 19°F 31°F 6°F (2000)
Degree Days
Heating Degree Days 42 27  
Month to date heating degree days 255  
Since 1 July heating degree days 1043  
Cooling Degree Days 0 0  
Month to date cooling degree days 0  
Year to date cooling degree days 450  
Moisture
Dew Point 23°F   
Average Humidity 98    
Maximum Humidity 100    
Minimum Humidity 74    
Precipitation
Precipitation 0.00 in 0.08 in 1.02 in (1983)
Month to date precipitation 0.69  
Year to date precipitation 12.65  
Snow
Snow 0.00 in 0.20 in 3.30 in (1945)
Month to date snowfall 1.1  
Since 1 July snowfall 1.2  
Since 1 September snowfall 1.2  
Snow Depth in   
Wind
Wind Speed 6 mph   
Max Wind Speed 10 mph   
Max Gust Speed mph   
Visibility 10 miles   
Events Snow   

Key: T is trace of precipitation, MM is missing value
Source: NWS Daily Summary
Time(PST)TemperatureDew PointHumidity Pressure Visibility Wind DirectionWind SpeedGust SpeedPrecipitationEvents Conditions
12:58 AM 23.7°F 23.7°F 100% 29.95 in 10.0 miles Variable 6.9 mph - N/A   Mostly Cloudy
1:35 AM 23.0°F 23.0°F 100% 29.87 in 10.0 miles NW 6.9 mph - N/A   Overcast
1:52 AM 23.0°F 23.0°F 100% 29.87 in 10.0 miles NNW 5.8 mph - N/A   Overcast
1:58 AM 22.6°F 22.6°F 100% 29.97 in 10.0 miles NW 5.8 mph - 0.00 in   Overcast
1:59 AM 23.0°F 23.0°F 100% 29.87 in 10.0 miles NNW 5.8 mph - N/A   Overcast
2:09 AM 23.0°F 23.0°F 100% 29.88 in 10.0 miles North 5.8 mph - N/A   Mostly Cloudy
2:53 AM 21.2°F 21.2°F 100% 29.88 in 10.0 miles NNW 5.8 mph - N/A Snow Light Snow
2:58 AM 21.7°F 21.7°F 100% 29.97 in 10.0 miles NNW 5.8 mph - 0.00 in Snow Light Snow
3:03 AM 21.2°F 21.2°F 100% 29.88 in 10.0 miles NW 5.8 mph - N/A   Scattered Clouds
3:58 AM 21.0°F 21.0°F 100% 29.99 in 10.0 miles North 6.9 mph - 0.00 in   Clear
4:58 AM 19.8°F 19.8°F 100% 30.00 in 10.0 miles North 8.1 mph - N/A   Partly Cloudy
5:46 AM 19.4°F 19.4°F 100% 29.91 in 10.0 miles NNW 3.5 mph - N/A Snow Light Snow
5:58 AM 20.1°F 20.1°F 100% 30.01 in 10.0 miles NNW 5.8 mph - 0.00 in Snow Light Snow
6:04 AM 21.2°F 21.2°F 100% 29.91 in 10.0 miles North 6.9 mph - N/A   Scattered Clouds
6:58 AM 21.4°F 21.4°F 100% 30.02 in 10.0 miles North 5.8 mph - 0.00 in   Overcast
7:07 AM 21.2°F 21.2°F 100% 29.93 in 10.0 miles NNW 5.8 mph - N/A Snow Light Snow
7:17 AM 21.2°F 21.2°F 100% 29.93 in 10.0 miles NNW 6.9 mph - N/A   Scattered Clouds
7:58 AM 21.0°F 21.0°F 100% 30.04 in 10.0 miles North 5.8 mph - 0.00 in   Scattered Clouds
8:14 AM 21.2°F 21.2°F 100% 29.95 in 10.0 miles NNW 3.5 mph - N/A   Partly Cloudy
8:30 AM 21.2°F 21.2°F 100% 29.96 in 10.0 miles NNW 5.8 mph - N/A   Clear
8:58 AM 23.0°F 23.0°F 100% 30.06 in 10.0 miles NNW 6.9 mph - N/A   Partly Cloudy
9:58 AM 25.0°F 24.8°F 99% 30.08 in 10.0 miles North 9.2 mph - N/A   Mostly Cloudy
10:58 AM 26.4°F 23.9°F 90% 30.08 in 10.0 miles NNW 10.4 mph - N/A   Scattered Clouds
11:58 AM 26.2°F 23.9°F 91% 30.09 in 10.0 miles North 5.8 mph - N/A   Scattered Clouds
12:23 PM 26.6°F 23.0°F 86% 30.00 in 10.0 miles NNW 5.8 mph - N/A   Clear
12:32 PM 26.6°F 23.0°F 86% 30.00 in 10.0 miles North 4.6 mph - N/A   Clear
12:58 PM 27.9°F 24.1°F 86% 30.09 in 10.0 miles North 4.6 mph - 0.00 in   Partly Cloudy
1:58 PM 28.2°F 21.0°F 74% 30.12 in 10.0 miles North 3.5 mph - N/A   Partly Cloudy
2:58 PM 28.2°F 23.0°F 81% 30.14 in 10.0 miles Calm Calm - N/A   Clear
3:38 PM 26.6°F 26.6°F 100% 30.05 in 10.0 miles South 4.6 mph - N/A   Mostly Cloudy
3:48 PM 26.6°F 26.6°F 100% 30.05 in 10.0 miles SSW 3.5 mph - N/A   Overcast
3:58 PM 27.0°F 26.4°F 98% 30.16 in 10.0 miles South 3.5 mph - 0.00 in   Overcast
4:58 PM 25.9°F 25.9°F 100% 30.18 in 10.0 miles SW 4.6 mph - N/A   Overcast
5:05 PM 24.8°F 24.8°F 100% 30.07 in 10.0 miles WSW 5.8 mph - N/A   Overcast
5:17 PM 24.8°F 24.8°F 100% 30.07 in 10.0 miles WSW 6.9 mph - N/A   Overcast
5:58 PM 25.3°F 25.3°F 100% 30.19 in 10.0 miles SSW 4.6 mph - 0.00 in   Overcast
6:27 PM 24.8°F 24.8°F 100% 30.08 in 10.0 miles South 3.5 mph - N/A   Mostly Cloudy
6:46 PM 23.0°F 23.0°F 100% 30.09 in 10.0 miles SE 3.5 mph - N/A   Partly Cloudy
6:58 PM 22.6°F 22.6°F 100% 30.20 in 10.0 miles South 3.5 mph - 0.00 in   Clear
7:58 PM 22.8°F 22.8°F 100% 30.20 in 10.0 miles SW 6.9 mph - N/A   Clear
8:02 PM 21.2°F 21.2°F 100% 30.09 in 10.0 miles SW 5.8 mph - N/A Snow Light Snow
8:22 PM 21.2°F 21.2°F 100% 30.10 in 10.0 miles SW 6.9 mph - N/A   Clear
8:58 PM 21.0°F 21.0°F 100% 30.21 in 10.0 miles WSW 8.1 mph - 0.00 in   Clear
9:58 PM 22.6°F 22.6°F 100% 30.21 in 10.0 miles SSW 4.6 mph - N/A   Clear
10:02 PM 21.2°F 21.2°F 100% 30.11 in 10.0 miles SSW 3.5 mph - N/A   Clear
10:31 PM 21.2°F 21.2°F 100% 30.12 in 10.0 miles SSW 5.8 mph - N/A   Partly Cloudy
10:35 PM 21.2°F 21.2°F 100% 30.12 in 10.0 miles SSW 5.8 mph - N/A Snow Light Snow
10:48 PM 21.2°F 21.2°F 100% 30.12 in 10.0 miles SSW 4.6 mph - N/A   Partly Cloudy
10:58 PM 21.9°F 21.9°F 100% 30.22 in 10.0 miles SW 5.8 mph - 0.00 in   Scattered Clouds
11:03 PM 23.0°F 23.0°F 100% 30.12 in 10.0 miles SW 6.9 mph - N/A   Mostly Cloudy
11:18 PM 23.0°F 23.0°F 100% 30.13 in 10.0 miles SW 8.1 mph - N/A   Scattered Clouds
11:58 PM 19.6°F 19.6°F 100% 30.25 in 10.0 miles SW 6.9 mph - N/A   Clear
Moon Phase
Nov. 10 Nov. 13 Nov. 20 Nov. 28 Dec. 06
Sunrise:06:49 AM (PST) Moon Rise:02:45 AM (PST)11/10
Sunset:04:19 PM (PST) Moon Set:02:20 PM (PST)11/10

Copyright © 2014 The Weather Underground, Inc.